Weather Service Report


299 
ASUS45 KREV 151210
RWRNV 
NEVADA REGIONAL WEATHER ROUNDUP
NATIONAL WEATHER SERVICE RENO NV
500 AM PDT MON OCT 15 2018

NOTE: "FAIR" INDICATES FEW OR NO CLOUDS BELOW 12,000 FEET WITH NO
SIGNIFICANT WEATHER AND/OR OBSTRUCTIONS TO VISIBILITY.

NVZ001-003-004-151300-
WESTERN NEVADA
  
CITY           SKY/WX    TMP DP  RH WIND       PRES   REMARKS
RENO           PTCLDY    34  14  43 E3        30.39R                  
6HR MIN TEMP:  33; 6HR MAX TEMP:  40;                                

CARSON CITY    FAIR      28   9  43 NW3       30.39R                  
MINDEN         FAIR      18  10  73 CALM      30.39R                  
SLIDE MTN        N/A     28  -2  26 E23         N/A                   
FALLON         PTCLDY    22  12  65 CALM      30.41R                  
6HR MIN TEMP:  21; 6HR MAX TEMP:  36;                                

LOVELOCK       PTCLDY    26  12  55 N6        30.42R                  
6HR MIN TEMP:  20; 6HR MAX TEMP:  38;                                

HAWTHORNE      CLEAR     34  14  44 SW5       30.39R                  
$$

NVZ002-CAZ072-073-151300-
NORTHERN AND CENTRAL SIERRA
  
CITY           SKY/WX    TMP DP  RH WIND       PRES   REMARKS
S. LAKE TAHOE  PTCLDY    26  12  55 S3        30.31R                  
6HR MIN TEMP:  26; 6HR MAX TEMP:  42; 6HR PCP: TRACE;                

TRUCKEE        CLEAR     23  10  58 CALM      30.37R                  
SQUAW VLY 8000   N/A     32   7  34 NE5         N/A                   
BLUE CANYON    CLEAR     43  -1  16 VRB5      30.27R                  
MAMMOTH LAKES  FAIR      27   9  46 NW8       30.38S                  
6HR MIN TEMP:  27; 6HR MAX TEMP:  32;                                

BRIDGEPORT     FAIR      15   4  61 CALM      30.37R                  
$$

NVZ030-031-036-151300-
NORTHERN NEVADA
  
CITY           SKY/WX    TMP DP  RH WIND       PRES   REMARKS
ELKO           MOCLDY    16   9  74 E3        30.43S                  
6HR MIN TEMP:  15; 6HR MAX TEMP:  28;                                

WINNEMUCCA     CLOUDY    18   9  68 E7        30.44R                  
6HR MIN TEMP:  16; 6HR MAX TEMP:  36;                                

WENDOVER       PTCLDY    30  19  63 CALM      30.42R                  
$$

NVZ035-037-151300-
CENTRAL NEVADA
  
CITY           SKY/WX    TMP DP  RH WIND       PRES   REMARKS
ELY            CLEAR     24   8  50 VRB6      30.38S                  
6HR MIN TEMP:  21; 6HR MAX TEMP:  26;                                

EUREKA           N/A     14   6  70 S6        30.40S                  
6HR MIN TEMP:  10; 6HR MAX TEMP:  19;                                

$$

NVZ013-014-151300-
SOUTH CENTRAL NEVADA
  
CITY           SKY/WX    TMP DP  RH WIND       PRES   REMARKS
TONOPAH        CLEAR     30   4  33 NE14      30.36S                  
6HR MIN TEMP:  30; 6HR MAX TEMP:  39;                                

$$

NVZ017-020-022-151300-
SOUTHERN NEVADA
  
CITY           SKY/WX    TMP DP  RH WIND       PRES   REMARKS
LAS VEGAS      CLEAR     53   6  15 N17       30.23R                  
6HR MIN TEMP:  53; 6HR MAX TEMP:  57;                                

N. LAS VEGAS   CLEAR     52   5  15 NW22G30   30.23S                  
6HR MIN TEMP:  52; 6HR MAX TEMP:  58;                                

NELLIS AFB     CLEAR     55   7  15 W7G17     30.23F                  
HENDERSON      CLEAR     48   8  19 NE5       30.26R                  
6HR MIN TEMP:  48; 6HR MAX TEMP:  54;                                

MERCURY        CLEAR     45   2  17 NE12      30.28S                  
6HR MIN TEMP:  44; 6HR MAX TEMP:  52;                                

$$
  

Return to Home page


Western Regional Climate Center, wrcc@dri.edu